Hourly Data Report for July 04, 2022

TORONTO INTL A
ONTARIO
Current Station Operator: NAVCAN

43°40'36.000" N
79°37'50.000" W
173.40 m
6158731
71624
YYZ

Download Data

Hourly Data (July 2022)
Hourly Data Report for July 4, 2022
TIME
LST
Temp Definition
°C
Dew Point Definition
°C
Rel Hum Definition
%
Precip. Amount Definition
mm

Wind Dir Definition
10's deg

Wind Spd Definition
km/h
Visibility Definition
km
Stn Press Definition
kPa
Hmdx Definition


Wind Chill Definition


Weather Definition


00:00 18.2 8.9 54   1 4 24.1 100.03     LegendNANA
01:00 17.5 9.2 58   24 3 24.1 100.05     Mainly Clear
02:00 17.0 9.3 60   28 7 24.1 100.06     LegendNANA
03:00 17.0 10.0 63   32 7 24.1 100.04     LegendNANA
04:00 16.9 10.2 64   2 8 24.1 100.04     Mostly Cloudy
05:00 16.5 10.2 66   31 8 24.1 100.08     LegendNANA
06:00 18.1 10.2 60   31 5 24.1 100.09     LegendNANA
07:00 19.7 10.6 55   2 5 24.1 100.13     Mainly Clear
08:00 21.8 10.8 49   15 4 24.1 100.11     LegendNANA
09:00 22.6 10.2 45   17 7 24.1 100.09     LegendNANA
10:00 23.8 10.7 43   16 7 24.1 100.10 25   Mainly Clear
11:00 24.3 9.7 39   17 14 24.1 100.06 25   LegendNANA
12:00 24.8 10.2 39   15 16 24.1 100.03 26   LegendNANA
13:00 25.1 10.1 38   16 15 24.1 99.98 26   Mostly Cloudy
14:00 25.8 10.6 38   13 12 24.1 99.93 27   LegendNANA
15:00 23.8 10.0 41   13 13 24.1 99.91 25   LegendNANA
16:00 24.3 10.6 41   18 10 24.1 99.87 26   Mostly Cloudy
17:00 23.5 10.3 43   13 12 24.1 99.82 25   LegendNANA
18:00 23.2 10.8 45   13 10 24.1 99.81 25   LegendNANA
19:00 22.7 10.2 45   12 9 24.1 99.81     Cloudy
20:00 22.1 10.4 47   9 6 24.1 99.77     LegendNANA
21:00 22.3 8.4 40   14 7 24.1 99.78     LegendNANA
22:00 22.0 8.7 42   12 5 24.1 99.73     Mostly Cloudy
23:00 21.9 10.9 49   12 7 24.1 99.66     LegendNANA

Notes on Data Quality.

Legend

  • E = Estimated
  • M = Missing
  • NA = Not Available*
  • [empty] = Indicates an unobserved value
Date modified: